[[{"header":{"parameterUnit":"m.s-1","parameterCategory":1,"la1":30.2991,"la2":30.254,"lo1":-89.0895,"lo2":-89.0444,"dy":0.0017,"dx":0.0017,"nx":28,"ny":28,"refTime":"2025-06-10T03:00:00:Z","depth":0,"parameterNumber":2,"parameterNumberName":"U-component_of_WINDS"},"data":[0,0,0,0,0,0,0,0,0,0,0,0,0,0,0,0,0,0,0,0,0,0,0,0,0,0,0,0,0,0,0,0,0,0,0,0,0,0,0,0,0,0,0,0,0,0,0,0,0,0,0,0,0,0,0,0,0,0,2.9323,2.9323,0,2.9326,2.9327,2.9327,2.9288,2.9287,2.9285,2.9284,2.929,2.9291,2.9292,0,0,0,0,0,0,0,0,0,0,0,0,0,2.9287,2.9288,2.9323,2.9323,2.9323,2.9326,2.9327,2.9327,2.9288,2.9286,2.9285,2.9284,2.929,2.9291,2.9292,0,0,0,0,0,0,0,0,0,0,0,0,0,2.9298,2.9288,2.9323,2.9304,2.9303,2.9326,2.9327,2.9327,2.9288,2.9286,2.9285,2.9283,2.9289,2.9291,2.9293,2.9335,0,0,2.9298,2.9299,0,0,0,0,0,0,0,0,2.9297,2.9299,2.9307,2.9306,2.9304,2.9305,2.9316,2.933,2.9288,2.9294,2.9284,2.9283,2.9296,2.9297,2.9302,2.9336,2.9336,2.9298,2.9299,2.93,2.93,0,0,0,0,0,0,0,2.9297,2.9299,2.9325,2.9307,2.9305,2.9297,2.9297,2.9318,2.9304,2.9293,2.929,2.9291,2.9295,2.93,2.9302,2.9336,2.9298,2.9299,2.9301,2.9301,2.9409,2.941,0,0,0,0,0,0,2.9298,2.9299,2.9324,2.9325,2.9296,2.9299,2.9298,2.9306,2.9304,2.9302,2.9292,2.9289,2.9298,2.93,2.9302,2.9354,2.93,2.9301,2.9302,2.9407,2.9409,2.9411,0,0,0,0,0,0,2.9297,2.9301,2.9324,2.9311,2.9313,2.9301,2.931,2.9307,2.9312,2.9303,2.9301,2.93,2.9297,2.9299,2.9328,2.9353,2.9302,2.9304,2.9405,2.9407,2.941,2.9457,0,0,0,0,0,0,2.9297,2.9301,2.9316,2.9311,2.9314,2.9349,2.9312,2.9308,2.9315,2.9311,2.9309,2.9308,2.9296,2.9326,2.933,2.9355,2.9305,2.9402,2.9406,2.9409,2.9453,2.9461,2.9468,0,0,0,0,0,2.9295,2.9329,2.9317,2.932,2.9333,2.9351,2.9353,2.9337,2.9317,2.9333,2.9328,2.9308,2.935,2.9329,2.9333,2.9359,2.9401,2.9405,2.9409,2.945,2.9459,2.9468,0,0,0,0,0,0,2.9337,2.9328,2.9314,2.9347,2.935,2.9344,2.9364,2.9348,2.9357,2.9353,2.9334,2.9334,2.9367,2.9365,2.9342,2.9402,2.9372,2.9377,2.9402,2.9411,2.9418,2.9418,2.9306,0,0,0,0,0,2.9349,2.9364,2.9356,2.9386,2.9388,2.9376,2.9383,2.9371,2.9374,2.9375,2.9372,2.9376,2.9391,2.94,2.9413,2.9453,2.9453,2.9473,2.948,2.9486,2.9491,2.9515,2.9525,2.9424,2.9424,2.9424,0,0,2.9376,2.9373,2.9383,2.9394,2.9395,2.9412,2.9377,2.9396,2.9409,2.9378,2.9406,2.9404,2.9407,2.9443,2.9458,2.9443,2.9519,2.9492,2.9496,2.9498,2.952,2.953,2.9538,2.9427,2.9427,2.9426,0,0,2.9434,2.9432,2.9458,2.946,2.9462,2.9454,2.946,2.9458,2.9455,2.9482,2.946,2.9476,2.95,2.9505,2.951,2.9572,2.9555,2.9577,2.9615,2.9639,2.9647,2.9654,2.9678,2.9687,2.9582,2.9582,2.9582,0,2.9467,2.9491,2.9473,2.9495,2.9501,2.9474,2.9501,2.9504,2.951,2.9516,2.9499,2.9531,2.9531,2.9568,2.9584,2.9588,2.9596,2.9577,2.9647,2.9654,2.966,2.9683,2.9692,2.9585,2.9584,2.9584,2.9584,0,2.9533,2.955,2.9571,2.9578,2.9587,2.9611,2.9598,2.9609,2.9598,2.9592,2.9622,2.9621,2.9634,2.9642,2.963,2.9679,2.967,2.965,2.9619,2.9673,2.9694,2.9703,2.9589,2.9588,2.9587,2.9586,0,0,2.9616,2.9615,2.9623,2.9627,2.9628,2.9641,2.9665,2.9678,2.9689,2.9695,2.9716,2.9738,2.9721,2.9727,2.9716,2.9736,2.9789,2.9714,2.9714,2.973,2.9845,2.9861,2.9871,2.9777,2.9779,2.978,2.9845,0,2.9674,2.9714,2.97,2.9742,2.9759,2.9734,2.9756,2.976,2.9756,2.9771,2.9767,2.9784,2.9758,2.9762,2.9781,2.9778,2.9812,2.9773,2.9799,2.98,2.98,2.9882,2.9898,2.996,2.9853,2.9855,2.9856,0,2.9747,2.9756,2.9799,2.98,2.9807,2.9826,2.9838,2.9851,2.9857,2.9853,2.9861,2.9846,2.9872,2.9841,2.9877,2.9851,2.9861,2.9861,2.9863,2.9866,2.9832,2.9889,2.9979,2.9989,2.9868,2.9867,2.9866,0,2.9806,2.9829,2.9859,2.9862,2.9863,2.9878,2.9879,2.9882,2.9892,2.9902,2.9909,2.9922,2.993,2.9942,2.9932,2.991,2.9971,2.9939,2.9971,2.9971,2.9985,2.9985,3.008,2.9989,2.9989,2.9989,2.9988,0,2.9873,2.9901,2.9886,2.9904,2.9935,2.992,2.9952,2.995,2.9954,2.9973,2.9952,2.9971,2.9956,2.9974,2.9966,2.9999,3.0003,3.0002,3.0,3.0004,3.0005,3.0011,3.0007,2.9991,2.9991,2.999,2.999,0,2.9945,2.9935,2.9966,2.9964,2.9965,2.9988,2.9988,3.0006,3.0001,3.0025,3.003,3.0023,3.0043,3.0035,3.0056,3.0051,3.0094,3.0085,3.0092,3.009,3.0123,3.0121,3.0227,3.0241,3.014,3.0141,3.0142,0,2.9989,3.001,3.0011,3.0022,3.0025,3.0042,3.0052,3.0038,3.005,3.0058,3.0076,3.0094,3.0108,3.0142,3.014,3.0157,3.015,3.0186,3.0152,3.0157,3.0153,3.0152,3.0156,3.0193,3.0194,3.0195,3.0196,0,3.0069,3.0064,3.0078,3.0091,3.0104,3.0114,3.0122,3.0132,3.0119,3.0133,3.0154,3.0165,3.0187,3.0206,3.0222,3.0225,3.0209,3.0206,3.0215,3.0221,3.0225,3.0225,3.0112,3.0204,3.0203,3.0203,3.0202,3.0202,3.013,3.0148,3.0152,3.017,3.0175,3.0184,3.0201,3.0199,3.0215,3.0232,3.0223,3.0247,3.0254,3.0273,3.0279,3.0299,3.0285,3.0297,3.03,3.0304,3.0309,3.022,3.0301,3.0301,3.0301,3.0301,3.0301,0,3.0211,3.0212,3.0228,3.0241,3.0256,3.0238,3.0248,3.0261,3.0283,3.029,3.0305,3.033,3.0349,3.0349,3.0367,3.0384,3.0377,3.0389,3.0389,3.039,3.0319,3.0311,3.0394,3.0394,3.0394,3.0394,3.0394,3.0394,3.0254,3.0286,3.0281,3.0316,3.0318,3.0341,3.0348,3.0357,3.0363,3.0391,3.0407,3.0407,3.0412,3.0431,3.0449,3.0448,3.0457,3.0472,3.047,3.0404,3.0395,3.0386,3.0378,3.0474,3.0474,3.0539,3.0539,3.054]},{"header":{"parameterUnit":"m.s-1","parameterCategory":1,"la1":30.2991,"la2":30.254,"lo1":-89.0895,"lo2":-89.0444,"dy":0.0017,"dx":0.0017,"nx":28,"ny":28,"refTime":"2025-06-10T03:00:00:Z","depth":0,"parameterNumber":3,"parameterNumberName":"V-component_of_WINDS"},"data":[0,0,0,0,0,0,0,0,0,0,0,0,0,0,0,0,0,0,0,0,0,0,0,0,0,0,0,0,0,0,0,0,0,0,0,0,0,0,0,0,0,0,0,0,0,0,0,0,0,0,0,0,0,0,0,0,0,0,0.6525,0.6526,0,0.6541,0.6542,0.6542,0.6533,0.6533,0.6533,0.6532,0.6548,0.6549,0.655,0,0,0,0,0,0,0,0,0,0,0,0,0,0.6486,0.6487,0.6525,0.6526,0.6526,0.6541,0.6542,0.6542,0.6534,0.6533,0.6532,0.6532,0.6548,0.6549,0.655,0,0,0,0,0,0,0,0,0,0,0,0,0,0.6503,0.6487,0.6525,0.6524,0.6524,0.6541,0.6542,0.6542,0.6534,0.6533,0.6532,0.6532,0.6548,0.6549,0.655,0.657,0,0,0.6554,0.6554,0,0,0,0,0,0,0,0,0.6502,0.6504,0.6524,0.6524,0.6524,0.6535,0.6534,0.6551,0.6534,0.653,0.6532,0.6531,0.6544,0.6546,0.655,0.6571,0.6572,0.6554,0.6555,0.6555,0.6556,0,0,0,0,0,0,0,0.6501,0.6504,0.6532,0.6524,0.6524,0.6521,0.6523,0.6537,0.654,0.653,0.653,0.6532,0.6544,0.6549,0.655,0.6572,0.6554,0.6555,0.6556,0.6556,0.6609,0.661,0,0,0,0,0,0,0.65,0.6503,0.6531,0.6532,0.6511,0.6523,0.6525,0.6532,0.654,0.6541,0.6532,0.6531,0.6547,0.6549,0.6551,0.6574,0.6555,0.6556,0.6557,0.6608,0.6609,0.661,0,0,0,0,0,0,0.6499,0.6502,0.6531,0.6517,0.6521,0.6524,0.6532,0.6533,0.6537,0.6542,0.6542,0.6536,0.6547,0.6549,0.6565,0.6575,0.6557,0.6558,0.6608,0.6609,0.661,0.6622,0,0,0,0,0,0,0.6498,0.6502,0.6511,0.6518,0.6521,0.6545,0.6533,0.6533,0.654,0.6538,0.6546,0.6547,0.6546,0.6564,0.6567,0.6576,0.6559,0.6607,0.6608,0.6609,0.6621,0.6623,0.6626,0,0,0,0,0,0.6497,0.6514,0.6511,0.6515,0.6532,0.6546,0.6548,0.6548,0.654,0.6548,0.6551,0.6546,0.6573,0.6565,0.6569,0.6579,0.6606,0.6608,0.6609,0.662,0.6623,0.6626,0,0,0,0,0,0,0.6508,0.6515,0.6512,0.6532,0.6538,0.6544,0.6555,0.6551,0.656,0.6558,0.6557,0.6559,0.6575,0.6579,0.657,0.6598,0.6589,0.6591,0.6596,0.6599,0.6601,0.66,0.656,0,0,0,0,0,0.6513,0.6524,0.6529,0.6546,0.6549,0.6551,0.6557,0.6556,0.6563,0.6566,0.657,0.6576,0.6586,0.6592,0.6602,0.6621,0.6622,0.663,0.6632,0.6634,0.6636,0.6645,0.6648,0.6615,0.6615,0.6615,0,0,0.6523,0.6528,0.6535,0.6548,0.6553,0.6564,0.6554,0.6566,0.6574,0.6568,0.6583,0.6586,0.6593,0.661,0.6618,0.6614,0.6645,0.6636,0.6637,0.6638,0.6647,0.665,0.6653,0.6616,0.6616,0.6615,0,0,0.6547,0.6552,0.6567,0.6571,0.6579,0.658,0.6583,0.6589,0.6591,0.6606,0.6601,0.661,0.6627,0.6632,0.6637,0.6661,0.6657,0.6664,0.6676,0.6685,0.6688,0.669,0.6698,0.6701,0.6666,0.6666,0.6666,0,0.6559,0.6576,0.6574,0.6587,0.6592,0.6586,0.66,0.6605,0.6615,0.6619,0.6613,0.6634,0.6638,0.6656,0.6662,0.6666,0.6669,0.6663,0.6688,0.669,0.6692,0.67,0.6703,0.6667,0.6667,0.6666,0.6666,0,0.6589,0.66,0.6611,0.662,0.6627,0.664,0.664,0.6647,0.6645,0.6646,0.6661,0.6666,0.6675,0.6679,0.6678,0.6697,0.6693,0.6688,0.6678,0.6696,0.6703,0.6706,0.6668,0.6667,0.6667,0.6667,0,0,0.6622,0.6629,0.6633,0.6637,0.6643,0.6652,0.6664,0.6673,0.6679,0.6685,0.6695,0.6709,0.6704,0.6709,0.6708,0.6716,0.6733,0.6709,0.6709,0.6713,0.6753,0.6757,0.6761,0.673,0.6731,0.6731,0.6752,0,0.6646,0.6667,0.6666,0.6686,0.6696,0.6689,0.67,0.6705,0.6706,0.6714,0.6715,0.6725,0.6717,0.672,0.6728,0.6729,0.6741,0.6728,0.6739,0.6739,0.6737,0.6764,0.6769,0.6789,0.6755,0.6756,0.6756,0,0.6677,0.6684,0.6705,0.6709,0.6713,0.6723,0.673,0.6738,0.6743,0.6743,0.6748,0.6745,0.6757,0.6747,0.6762,0.6753,0.6757,0.6758,0.6759,0.676,0.6749,0.6766,0.6795,0.6798,0.676,0.676,0.676,0,0.6698,0.6713,0.6727,0.673,0.6735,0.6742,0.6745,0.6749,0.6754,0.676,0.6764,0.6771,0.6776,0.6781,0.678,0.6773,0.6795,0.6785,0.6795,0.6795,0.6801,0.68,0.6831,0.6804,0.6804,0.6804,0.6804,0,0.6725,0.6738,0.6736,0.6745,0.6759,0.6756,0.677,0.6771,0.6775,0.6783,0.6779,0.6786,0.6784,0.6792,0.6791,0.6803,0.6805,0.6805,0.6805,0.6806,0.6806,0.6809,0.6807,0.6804,0.6804,0.6804,0.6804,0,0.6751,0.6751,0.6765,0.6769,0.677,0.6779,0.6782,0.679,0.679,0.6801,0.6803,0.6803,0.6812,0.6811,0.6821,0.682,0.6835,0.6833,0.6833,0.6833,0.6843,0.6842,0.6877,0.6881,0.6851,0.6851,0.6851,0,0.6768,0.6778,0.6782,0.6787,0.679,0.6798,0.6803,0.68,0.6806,0.6811,0.6818,0.6826,0.6833,0.6846,0.6847,0.6854,0.6852,0.6864,0.6853,0.6854,0.6852,0.6851,0.6852,0.6866,0.6866,0.6867,0.6867,0,0.6799,0.6797,0.6805,0.6811,0.6817,0.6823,0.6828,0.6832,0.683,0.6836,0.6844,0.6849,0.6858,0.6866,0.6873,0.6875,0.687,0.687,0.6873,0.6874,0.6873,0.6873,0.6839,0.6869,0.6869,0.6869,0.6869,0.6869,0.682,0.6828,0.6832,0.684,0.6843,0.6847,0.6854,0.6855,0.6862,0.6869,0.6867,0.6876,0.688,0.6888,0.6891,0.6897,0.6893,0.6897,0.6898,0.6899,0.69,0.6872,0.6899,0.6899,0.6899,0.6898,0.6898,0,0.685,0.6852,0.6859,0.6865,0.6871,0.6866,0.6871,0.6876,0.6884,0.6888,0.6894,0.6903,0.691,0.6911,0.6918,0.6923,0.6921,0.6925,0.6924,0.6925,0.6904,0.6901,0.6926,0.6926,0.6926,0.6926,0.6926,0.6926,0.6866,0.6879,0.6878,0.6891,0.6893,0.6902,0.6905,0.6908,0.6911,0.6921,0.6927,0.6927,0.693,0.6936,0.6942,0.6942,0.6945,0.6949,0.6949,0.6929,0.6926,0.6924,0.6921,0.695,0.695,0.6969,0.6969,0.6969]}]]